Location: Cheyres
(46.8153°N, 6.7877°E)
Time: 00:28:10
(UTC+00:00)

Tiros 1 - Pass Details

Date: 27 May 2022
Orbit: 629 x 663 km, 48.4° (Epoch: 05 July)

Event Time Altitude Azimuth Distance (km) Brightness Sun altitude
Exits shadow 01:20:09 25° 250° (WSW) 1,268 8.2 -17.5°
Maximum altitude 01:22:48 85° 162° (SSE) 642 7.0 -17.3°
Drops below altitude 10° 01:27:29 10° 75° (ENE) 2,031 10.3 -16.9°
Sets 01:29:50 0° 75° (ENE) 2,947 11.2 -16.7°
